• In Belarus
  • List of Countries
  • For 7 days
  • Water Temperature
  • Satellite Maps
  • Weather Map
  • Weather Widgets
  • user-avatar
    Login

    Hourly Weather Pazardzhik

    Today, 24 November, Friday

    Time Temperature Precipitation Wind Pressure Humidity
    00:00 +10°C° 0 mm 1 mps 746 mmHg 68%
    01:00 +10°C° 0 mm 1 mps 746 mmHg 67%
    02:00 +10°C° 0 mm 1 mps 746 mmHg 67%
    03:00 +10°C° 0 mm 1 mps 746 mmHg 66%
    04:00 +9°C° 0 mm 1 mps 746 mmHg 66%
    05:00 +9°C° 0 mm 1 mps 746 mmHg 65%
    06:00 +9°C° 0 mm 1 mps 746 mmHg 65%
    07:00 +9°C° 0 mm 1 mps 746 mmHg 64%
    08:00 +9°C° 0 mm 1 mps 746 mmHg 64%
    09:00 +11°C° 0 mm 1 mps 746 mmHg 58%
    10:00 +14°C° 0 mm 1 mps 746 mmHg 53%
    11:00 +15°C° 0 mm 0 mps 746 mmHg 47%
    12:00 +16°C° 0 mm 1 mps 746 mmHg 47%
    13:00 +16°C° 0 mm 1 mps 746 mmHg 46%
    14:00 +18°C° 0 mm 1 mps 746 mmHg 46%
    15:00 +15°C° 0 mm 1 mps 746 mmHg 53%
    16:00 +13°C° 0 mm 1 mps 746 mmHg 60%
    17:00 +11°C° 0 mm 0 mps 746 mmHg 68%
    18:00 +11°C° 0 mm 1 mps 746 mmHg 70%
    19:00 +11°C° 0 mm 1 mps 746 mmHg 71%
    20:00 +10°C° 0 mm 1 mps 746 mmHg 73%
    21:00 +10°C° 0 mm 1 mps 747 mmHg 74%
    22:00 +10°C° 0 mm 1 mps 747 mmHg 74%
    23:00 +9°C° 0 mm 1 mps 747 mmHg 75%

    Tomorrow, 25 November, Saturday

    Time Temperature Precipitation Wind Pressure Humidity
    00:00 +9°C° 0 mm 1 mps 747 mmHg 76%
    01:00 +9°C° 0 mm 1 mps 747 mmHg 76%
    02:00 +9°C° 0 mm 1 mps 747 mmHg 77%
    03:00 +8°C° 0 mm 1 mps 747 mmHg 77%
    04:00 +8°C° 0 mm 1 mps 747 mmHg 78%
    05:00 +8°C° 0 mm 1 mps 747 mmHg 79%
    06:00 +8°C° 0 mm 1 mps 747 mmHg 79%
    07:00 +8°C° 0 mm 1 mps 747 mmHg 79%
    08:00 +8°C° 0 mm 1 mps 747 mmHg 79%
    09:00 +10°C° 0 mm 1 mps 747 mmHg 73%
    10:00 +12°C° 0 mm 1 mps 747 mmHg 68%
    11:00 +14°C° 0 mm 1 mps 747 mmHg 62%
    12:00 +14°C° 0 mm 1 mps 746 mmHg 62%
    13:00 +14°C° 0 mm 2 mps 746 mmHg 62%
    14:00 +15°C° 0 mm 2 mps 745 mmHg 62%
    15:00 +13°C° 0 mm 1 mps 745 mmHg 70%
    16:00 +12°C° 0 mm 1 mps 745 mmHg 79%
    17:00 +10°C° 0 mm 1 mps 744 mmHg 87%
    18:00 +10°C° 0 mm 1 mps 745 mmHg 89%
    19:00 +9°C° 0 mm 1 mps 745 mmHg 90%
    20:00 +9°C° 0 mm 1 mps 745 mmHg 91%
    21:00 +9°C° 0 mm 1 mps 745 mmHg 91%
    22:00 +9°C° 0 mm 1 mps 745 mmHg 90%
    23:00 +9°C° 0 mm 1 mps 744 mmHg 90%

    Day after tomorrow, 26 November, Sunday

    Time Temperature Precipitation Wind Pressure Humidity
    00:00 +9°C° 0 mm 1 mps 744 mmHg 90%
    01:00 +8°C° 0 mm 1 mps 744 mmHg 90%
    02:00 +8°C° 0 mm 1 mps 744 mmHg 90%
    03:00 +8°C° 0 mm 1 mps 744 mmHg 90%
    04:00 +8°C° 0 mm 1 mps 743 mmHg 90%
    05:00 +8°C° 0 mm 1 mps 743 mmHg 90%
    06:00 +8°C° 0 mm 1 mps 743 mmHg 89%
    07:00 +8°C° 0 mm 1 mps 743 mmHg 88%
    08:00 +8°C° 0 mm 1 mps 743 mmHg 86%
    09:00 +10°C° 0 mm 1 mps 743 mmHg 78%
    10:00 +12°C° 0 mm 1 mps 743 mmHg 69%
    11:00 +14°C° 0 mm 1 mps 743 mmHg 61%
    12:00 +15°C° 0 mm 1 mps 742 mmHg 59%
    13:00 +15°C° 0 mm 1 mps 742 mmHg 57%
    14:00 +16°C° 0 mm 1 mps 741 mmHg 55%
    15:00 +14°C° 0 mm 1 mps 741 mmHg 62%
    16:00 +13°C° 0 mm 1 mps 741 mmHg 68%
    17:00 +12°C° 0 mm 1 mps 741 mmHg 75%
    18:00 +11°C° 0 mm 1 mps 741 mmHg 76%
    19:00 +11°C° 0 mm 1 mps 740 mmHg 78%
    20:00 +11°C° 0 mm 1 mps 740 mmHg 79%
    21:00 +11°C° 0 mm 1 mps 740 mmHg 80%
    22:00 +11°C° 0 mm 1 mps 740 mmHg 80%
    23:00 +10°C° 0 mm 1 mps 740 mmHg 81%

    27 November, Monday

    Time Temperature Precipitation Wind Pressure Humidity
    00:00 +10°C° 0 mm 1 mps 740 mmHg 82%
    01:00 +10°C° 0 mm 1 mps 739 mmHg 82%
    02:00 +10°C° 0 mm 1 mps 739 mmHg 83%
    03:00 +10°C° 0.1 mm 1 mps 739 mmHg 84%
    04:00 +10°C° 0.1 mm 1 mps 739 mmHg 84%
    05:00 +10°C° 0.1 mm 1 mps 738 mmHg 84%
    06:00 +10°C° 0.5 mm 1 mps 738 mmHg 86%
    07:00 +10°C° 0.5 mm 1 mps 738 mmHg 87%
    08:00 +10°C° 0.5 mm 1 mps 738 mmHg 88%
    09:00 +10°C° 1 mm 1 mps 738 mmHg 88%
    10:00 +10°C° 1 mm 1 mps 738 mmHg 88%
    11:00 +11°C° 1 mm 1 mps 738 mmHg 88%
    12:00 +9°C° 1.7 mm 2 mps 738 mmHg 89%
    13:00 +9°C° 1.7 mm 2 mps 738 mmHg 89%
    14:00 +9°C° 1.7 mm 3 mps 737 mmHg 89%
    15:00 +8°C° 2.2 mm 3 mps 737 mmHg 89%
    16:00 +8°C° 2.2 mm 3 mps 738 mmHg 89%
    17:00 +6°C° 2.2 mm 4 mps 738 mmHg 88%
    18:00 +6°C° 1.7 mm 4 mps 738 mmHg 88%
    19:00 +5°C° 1.7 mm 4 mps 738 mmHg 87%
    20:00 +5°C° 1.7 mm 4 mps 738 mmHg 87%
    21:00 +5°C° 1.3 mm 4 mps 739 mmHg 87%
    22:00 +4°C° 1.3 mm 4 mps 739 mmHg 87%
    23:00 +4°C° 1.3 mm 4 mps 739 mmHg 87%

    28 November, Tuesday

    Time Temperature Precipitation Wind Pressure Humidity
    00:00 +4°C° 0.8 mm 4 mps 739 mmHg 87%
    01:00 +4°C° 0.8 mm 3 mps 739 mmHg 87%
    02:00 +4°C° 0.8 mm 3 mps 739 mmHg 87%
    03:00 +4°C° 0.4 mm 3 mps 739 mmHg 87%
    04:00 +4°C° 0.4 mm 3 mps 740 mmHg 87%
    05:00 +3°C° 0.4 mm 3 mps 740 mmHg 87%
    06:00 +3°C° 0.1 mm 3 mps 740 mmHg 86%
    07:00 +3°C° 0.1 mm 3 mps 740 mmHg 86%
    08:00 +3°C° 0.1 mm 3 mps 741 mmHg 86%
    09:00 +4°C° 0.1 mm 3 mps 741 mmHg 84%
    10:00 +4°C° 0.1 mm 3 mps 741 mmHg 83%
    11:00 +5°C° 0.1 mm 3 mps 741 mmHg 81%
    12:00 +5°C° 0 mm 3 mps 741 mmHg 81%
    13:00 +7°C° 0 mm 3 mps 741 mmHg 80%
    14:00 +7°C° 0 mm 3 mps 741 mmHg 80%
    15:00 +5°C° 0 mm 3 mps 741 mmHg 82%
    16:00 +5°C° 0 mm 2 mps 741 mmHg 83%
    17:00 +5°C° 0 mm 2 mps 742 mmHg 85%
    18:00 +4°C° 0.1 mm 2 mps 742 mmHg 85%
    19:00 +4°C° 0.1 mm 2 mps 742 mmHg 85%
    20:00 +4°C° 0.1 mm 2 mps 743 mmHg 86%
    21:00 +3°C° 0.1 mm 2 mps 743 mmHg 86%
    22:00 +3°C° 0.1 mm 2 mps 743 mmHg 86%
    23:00 +3°C° 0.1 mm 2 mps 743 mmHg 86%

    29 November, Wednesday

    Time Temperature Precipitation Wind Pressure Humidity
    00:00 +3°C° 0 mm 2 mps 743 mmHg 86%
    01:00 +3°C° 0 mm 2 mps 743 mmHg 86%
    02:00 +3°C° 0 mm 2 mps 744 mmHg 86%
    03:00 +4°C° 0 mm 1 mps 744 mmHg 86%
    04:00 +4°C° 0 mm 1 mps 744 mmHg 86%
    05:00 +4°C° 0 mm 1 mps 744 mmHg 86%
    06:00 +4°C° 0 mm 1 mps 744 mmHg 85%
    07:00 +4°C° 0 mm 1 mps 744 mmHg 85%
    08:00 +4°C° 0 mm 1 mps 744 mmHg 84%
    09:00 +6°C° 0 mm 1 mps 744 mmHg 82%
    10:00 +7°C° 0 mm 1 mps 744 mmHg 79%
    11:00 +8°C° 0 mm 0 mps 744 mmHg 76%
    12:00 +10°C° 0 mm 1 mps 744 mmHg 76%
    13:00 +10°C° 0 mm 1 mps 744 mmHg 75%
    14:00 +11°C° 0 mm 1 mps 743 mmHg 75%
    15:00 +9°C° 0 mm 1 mps 743 mmHg 78%
    16:00 +8°C° 0 mm 1 mps 743 mmHg 82%
    17:00 +7°C° 0 mm 1 mps 744 mmHg 85%
    18:00 +6°C° 0 mm 1 mps 744 mmHg 85%
    19:00 +6°C° 0 mm 1 mps 744 mmHg 86%
    20:00 +5°C° 0 mm 1 mps 744 mmHg 86%
    21:00 +5°C° 0 mm 1 mps 744 mmHg 86%
    22:00 +5°C° 0 mm 1 mps 744 mmHg 86%
    23:00 +5°C° 0 mm 1 mps 745 mmHg 85%
    Show more